Regional Weather Roundup
Issued by NWS

Home | Current Version | Previous Version | Graphics & Text | Print | Product List | Glossary On
Versions: 1 2 3 4 5 6 7 8 9 10 11 12 13 14 15 16 17 18 19 20 21 22 23 24 25 26 27 28 29 30 31 32 33 34 35 36 37 38 39 40 41 42 43 44 45 46 47 48 49 50
000
ASUS43 KMKX 290200
RWRWI

WISCONSIN REGIONAL WEATHER ROUNDUP
NATIONAL WEATHER SERVICE MILWAUKEE/SULLIVAN WI
900 PM CDT MON JUL 28 2014

NOTE: "FAIR" INDICATES FEW OR NO CLOUDS BELOW 12,000 FEET WITH NO
SIGNIFICANT WEATHER AND/OR OBSTRUCTIONS TO VISIBILITY.

WIZ001-002-006>008-014>016-023>028-290300-
NORTHWEST WISCONSIN

CITY           SKY/WX    TMP DP  RH WIND       PRES   REMARKS
SUPERIOR ARPT  MOCLDY    67  57  69 W7        30.08S
ASHLAND        MOCLDY    63  56  78 W6        30.07S
HAYWARD        CLOUDY    63  57  81 CALM      30.10S
SIREN          CLEAR     64  57  78 W3        30.12R
RICE LAKE      CLEAR     63  55  76 CALM      30.13S
LADYSMITH      PTCLDY    63  57  80 CALM      30.12S
EAU CLAIRE     NOT AVBL
MENOMONIE      CLEAR     67  53  61 W5        30.11S
NEW RICHMOND   CLEAR     65  55  69 W3        30.13S
OSCEOLA        CLEAR     68  56  65 W3        30.15S
$$

WIZ003>005-009-010-017-018-290300-
NORTH CENTRAL WISCONSIN

CITY           SKY/WX    TMP DP  RH WIND       PRES   REMARKS
WOODRUFF       LGT RAIN  62  51  68 CALM      30.09R
RHINELANDER    LGT RAIN  60  57  89 CALM      30.09S
EAGLE RIVER    CLOUDY    59  57  94 CALM      30.07F
LAND O LAKES   CLOUDY    59  56  89 CALM      30.08S
PHILLIPS       CLOUDY    64  57  78 CALM      30.09S
TOMAHAWK       PTCLDY    57  54  89 CALM      30.09S FOG
MEDFORD        MOCLDY    63  55  76 W3        30.10S
MERRILL        CLEAR     61  56  82 W3        30.08F
$$

WIZ029-030-035-036-043>047-290300-
CENTRAL WISCONSIN

CITY           SKY/WX    TMP DP  RH WIND       PRES   REMARKS
WAUSAU         CLEAR     62  57  83 W6        30.07R
MOSINEE        CLOUDY    64  55  72 NW5       30.10S
MARSHFIELD     CLOUDY    65  55  70 W3        30.09S
STEVENS POINT  MOCLDY    65  54  67 W3        30.08F
WAUPACA        PTCLDY    67  53  59 W5        30.06S
WAUTOMA        NOT AVBL
WISC RAPIDS    CLOUDY    66  56  70 W5        30.09F
CAMP DOUGLAS   NOT AVBL
$$

WIZ011>013-019>022-031-037>040-048>050-290300-
NORTHEAST WISCONSIN

CITY           SKY/WX    TMP DP  RH WIND       PRES   REMARKS
ANTIGO         CLEAR     60  54  80 W6        30.08S
STURGEON BAY   MOCLDY    57  48  72 S6        30.03S
GREEN BAY      CLOUDY    64  56  75 W5        30.04S
MANITOWOC      NOT AVBL
APPLETON       MOCLDY    64  54  68 VRB3      30.06S
CLINTONVILLE   CLOUDY    64  54  68 W3        30.05S
OSHKOSH        PTCLDY    67  52  58 NW5       30.05S
$$

WIZ032>034-041-042-053>061-290300-
SOUTHWEST WISCONSIN

CITY           SKY/WX    TMP DP  RH WIND       PRES   REMARKS
LA CROSSE      CLEAR     68  54  60 NW6       30.10S
SPARTA         CLEAR     62  53  73 CALM      30.11S
VIROQUA        FAIR      62  54  74 NW5       30.12S
BOSCOBEL       CLEAR     62  56  80 CALM      30.11R
PRAIRIE DU CHI CLEAR     66  51  59 CALM      30.11R
PLATTEVILLE    FAIR      65  53  65 NW6       30.12R
$$

WIZ056-057-062-063-064-067-068-290300-
SOUTH CENTRAL WISCONSIN

CITY           SKY/WX    TMP DP  RH WIND       PRES   REMARKS
BARABOO/DELLS  PTCLDY    64  51  61 W3        30.09S
LONE ROCK      NOT AVBL
WATERTOWN      CLOUDY    68  54  62 W3        30.06R
MADISON        PTCLDY    66  52  60 W5        30.08R
MIDDLETON      FAIR      64  52  65 W7        30.08S
MONROE         CLEAR     64  52  63 W8        30.09S
JANESVILLE     CLEAR     64  52  63 NW7       30.07S
$$

WIZ051-052-058>065-066-070>072-290300-
SOUTHEAST WISCONSIN

CITY           SKY/WX    TMP DP  RH WIND       PRES   REMARKS
MILWAUKEE      MOCLDY    61  49  64 S5        30.06S
WAUKESHA       MOCLDY    66  52  59 NW7       30.06S
MILWAUKEE/TIMM NOT AVBL
RACINE         MOCLDY    60  49  66 S3        30.07S
BURLINGTON     MOCLDY    62  53  71 W5        30.06R
KENOSHA        MOCLDY    60  50  69 S5        30.06S
FOND DU LAC    CLOUDY    67  52  58 NW5       30.06R
SHEBOYGAN      PTCLDY    57  52  83 CALM      30.05S
WEST BEND      CLOUDY    61  52  72 CALM      30.05S
JUNEAU         CLOUDY    67  49  53 NW3       30.07S
$$

LSZ147-162-290300-
LAKE SUPERIOR

STATION/POSITION TIME  TEMP    WIND        PRES    WAVE
                       AIR SEA DIR/SP/G            HT/PER
                 (UTC) (F)     (DEG/KT/KT) (MB)    (FT/S)
W MID LAKE BUOY  0050   51 44  240/  8/ 10 1017.0F   0
PORT WING        0100   68     260/  9/ 12 1017.9F
SAXON HARBOR     0100           90/  4/ 13 1017.9S
$$

LMZ867-665-643>646-290300-
LAKE MICHIGAN

STATION/POSITION TIME  TEMP    WIND        PRES    WAVE
                       AIR SEA DIR/SP/G            HT/PER
                 (UTC) (F)     (DEG/KT/KT) (MB)    (FT/S)
N MID LAKE BUOY  0050   56 54  240/ 10/ 12 1015.6F   1/ 3
NORTHPORT PIER   0100   63     240/  2/  5 1015.9F
SISTER BAY       0110   64     250/  7/  8   N/A
KEWAUNEE LAKESHO 0100   54     170/  4/  5 1017.7F
SHEBOYGAN LAKESH 0100   60     170/  5/  6 1017.9R
PORT WASHINGTON  0100   61     180/  2/  4 1018.3
ATWATER BUOY     0100   61     170/  6     1018.5F
MILWAUKEE LAKESH 0100   60     140/  6/  6   N/A
S MID LAKE BUOY  0050   60 60   20/  6/  8 1017.7F   4/ 6
KENOSHA   LAKESH 0100   61     150/  3/  3 1017.6F
$$

TC  - TEMPERATURE IN CELSIUS
VSB - VISIBILITY IN STATUTE MILES
WCI - WIND CHILL INDEX
HX  - HEAT INDEX



USA.gov is the U.S. government's official web portal to all federal, state and local government web resources and services.